Medford, WI

10:29 PM CDT on May 04, 2015 (GMT -0500)
Taylor County | | Change Station
CLOSE
Current Station
Airport
Location: Medford,
Elevation: 1470 ft
Nearby Weather Stations

Elev 1470 ft 45.10 °N, 90.30 °W | Updated 14 minutes ago

Partly Cloudy
Partly Cloudy
51 °F
Feels Like 51 °F
N
7
Wind Variable Wind from NE

Today
High -- | Low -- °F
--% Chance of Precip.
Yesterday
High -- | Low -- °F
Precip. -- in
5:46 AM 8:10 PM
Full, 99% visible
Pressure 30.21 in
Visibility 10.0 miles
Clouds Clear
Dew Point 34 °F
Humidity 51%
Rainfall 0.00 in
Snow Depth Not available.
UV 0 out of 12
Pollen 10.90 out of 12
Air Quality Not available.
Flu Activity Local Activity
METAR KMDZ 050315Z AUTO 04006KT 10SM CLR 11/01 A3021 RMK AO2 T01080010

More Conditions Fewer Conditions

Pressure 30.21 in
Visibility 10.0 miles
Clouds Clear
Dew Point 34 °F
Humidity 51%
Rainfall 0.00 in
Snow Depth Not available.
UV 0 out of 12
Pollen 10.90 out of 12
Air Quality Not available.
Flu Activity Local Activity
METAR KMDZ 050315Z AUTO 04006KT 10SM CLR 11/01 A3021 RMK AO2 T01080010

More Conditions Fewer Conditions

Nepal has a long way to go to dig out and rebuild from a devastating earthquake. We have teamed up with several charities and organizations to make contributing to the relief effort as easy as possible.
How you can help: Portlight Strategies | Red Cross

10-Day Weather Forecast

Almanac

Astronomy

May. 04, 2015 Rise Set
Actual Time
Civil Twilight
Nautical Twilight
Astronomical Twilight
Moon
Length of Visible Light
Length of Day
Tomorrow will be .
, % of the Moon is Illuminated

Today's Extremes

State Highs State Lows

Community

WunderPhotos

Upload Photos

1,818,809 photos uploaded!

WunderBlogs® & News

Nearby

Air Quality

  Air Quality AQ Index Pollutant
Not available.

Snow Depth

Station Depth Elevation

Earthquake Activity

City Distance Mag. Time & Date
Minimum magnitude displayed is 2.5.

Coastal Water Temperatures

Place Temperature

Stations

Nearby Weather Stations

Station Location Temp. Windchill Dew Point Humidity Wind Precip. Elev Updated Type